NOAA 16 DEB, 41540

Orbit data source: Space-Track

NOAA 16 DEB, 41540 is space debris in SSO originally from a launch on Thu, 21 Sep 2000 UTC launched from the Air Force Western Test Range (AFWTR). Debris objects in space refer to the collection of defunct objects orbiting the Earth. Examples of debris include non-operational satellites, rocket bodies, and fragments generated from explosions, collisions, or faulty payload assembly.

Loading next visibility...
Identifier
41540, 2000-055NQ
Orbit
SSO
Country
Flag of USUS
Related business
Manufacturer
Unknown
Mission
Spacecraft
Bus & Motor
Unknown
Mass
Unknown
Launch date (UTC)
2000-09-21 (25 years ago)
Launch vehicle
Unknown
Launch site
Air Force Western Test Range (AFWTR)
Object type
Payload
Rocket body
Debris
Shape & HBR
Unknown shape, 0.1 m
Radar Cross Section
Small (<0.1 m²)

Expand to show TLE details & history
Last TLE update: 2 days ago

TLE from 2 days ago
0 NOAA 16 DEB
1 41540U 00055NQ  26032.54127963  .00002600  00000-0  12898-2 0  9992
2 41540  98.7047  72.8636 0034927 205.1768 154.7706 14.17714654504185
Epoch: 2026-02-01T12:59Z
TLE epoch observation values (Epoch: 2026-02-01T12:59:26.560Z)
Latitude
0.00003°
Longitude
106.25349°
Altitude
858.808 km
Speed
7.411 km/s
True Right ascension
04h 51m 27s
True Declination
0° 00' 00"
Sunlit
Object was in daylight at epoch
Visualization orbit readout
Latitude
Unknown
Longitude
Unknown
Altitude
Unknown
Speed
Unknown
Apparent Right ascension
Unknown
Apparent Declination
Unknown
Sunlit
N/A
Visualization observer readout
Local Sidereal Time
15:15:17
Azimuth
Unknown
Elevation
Unknown
Doppler factor
Unknown
Orbital elements
Apogee altitude
855.43 km
Perigee altitude
805.077 km
Semi-major axis
7,208.39 km
Eccentricity
0.00349
Inclination
98.7047°
RAAN
72.8636°
Arg. of periapsis
205.1768°
True anomaly
154.94053°
Mean anomaly
154.7706°
Eccentric anomaly
154.85563°
Mean motion
3.54638 °/min
Orbital period
101.51 mins
BSTAR
0.0012898
Loading maneuver chart data...
Computing Atmospheric mass density...
Loading historical data...
Loading historical data...
Loading historical data...
Loading historical data...
Loading historical data...
Loading historical data...
Loading historical data...

Documentation

Showing up to 5 results
|